Weather History for Meacham, OR

Change the Weather History Date:

Monday, March 17, 2014

  Actual Average Record
Temperature  
Mean Temperature 34 °F -  
Max Temperature 37 °F 44 °F 64 °F (2007)
Min Temperature 28 °F 23 °F 1 °F (2002)
Degree Days  
Heating Degree Days 32    
Moisture  
Dew Point 28 °F    
Average Humidity 85    
Maximum Humidity 96    
Minimum Humidity 61    
Precipitation  
Precipitation 0.59 in - - ()
Sea Level Pressure  
Sea Level Pressure 29.97 in    
Wind  
Wind Speed 5 mph (West)    
Max Wind Speed 12 mph    
Max Gust Speed 25 mph    
Visibility 4 miles    
Events Fog , Rain , Snow    
Averages and records for this station are not official NWS values.
T = Trace of Precipitation, MM = Missing Value Source: NWS Daily Summary

Daily Weather History Graph

Daily Weather History Graph

Search for Another Location

Airport:

Trip Planner

Search our weather history database for the weather conditions in past years. The results will help you decide how hot, cold, wet, or windy it might be!

Date:

Astronomy

Mar. 17, 2014 Rise Set
Actual Time 7:02 AM PDT 7:02 PM PDT
Civil Twilight 6:32 AM PDT 7:31 PM PDT
Nautical Twilight 5:58 AM PDT 8:06 PM PDT
Astronomical Twilight 5:23 AM PDT 8:41 PM PDT
Moon 8:29 PM PDT (3/17) 7:16 AM PDT (3/17)
Length of Visible Light 12h 59m
Length of Day
12h 00m
Full, 99% of the Moon is Illuminated
Mar 17
Full
Mar 23
Last Quarter
Mar 30
New
Apr 7
First Quarter
Apr 15
Full

Hourly Weather History & Observations

Time (PDT) Temp. Windchill Dew Point Humidity Pressure Visibility Wind Dir Wind Speed Gust Speed Precip Events Conditions
12:21 AM 39.0 °F 35.7 °F 36.0 °F 89% 29.79 in - Variable 4.6 mph - 0.01 in Rain Light Rain
12:37 AM 37.9 °F 35.5 °F 36.0 °F 93% 29.77 in - Variable 3.5 mph - 0.02 in Rain Light Rain
12:46 AM 37.9 °F - 36.0 °F 93% 29.77 in 6.0 mi Calm Calm - 0.03 in Rain Light Rain
12:56 AM 37.9 °F - 36.0 °F 93% 29.75 in 6.0 mi Calm Calm - 0.04 in Rain Light Rain
1:33 AM 37.9 °F 34.4 °F 36.0 °F 93% 29.75 in - Variable 4.6 mph - 0.04 in Rain Light Rain
1:56 AM 36.0 °F 31.1 °F 34.0 °F 93% 29.75 in 3.0 mi Variable 5.8 mph - 0.10 in Rain Rain
2:16 AM 35.1 °F 29.3 °F 33.1 °F 92% 29.76 in 2.0 mi Variable 6.9 mph - 0.05 in Snow Light Snow
2:36 AM 34.0 °F 28.8 °F 32.0 °F 92% 29.76 in 1.2 mi Variable 5.8 mph - 0.11 in Snow Light Snow
2:56 AM 33.1 °F 26.1 °F 32.0 °F 96% 29.78 in 1.5 mi West 8.1 mph 23.0 mph 0.15 in Snow Light Snow
3:23 AM 33.1 °F - 30.9 °F 92% 29.78 in 0.8 mi North - - 0.07 in Snow Light Snow
3:32 AM 32.0 °F 23.6 °F 30.9 °F 96% 29.79 in 0.5 mi West 10.4 mph 18.4 mph 0.10 in Fog , Snow Snow
3:52 AM 32.0 °F 27.5 °F 30.2 °F 93% 29.80 in 0.2 mi Variable 4.6 mph - 0.17 in Fog , Snow Heavy Snow
3:56 AM 32.0 °F - 30.0 °F 92% 29.82 in 0.2 mi North - - 0.19 in Fog , Snow Snow
4:09 AM 30.9 °F 23.5 °F 30.0 °F 96% 29.81 in 0.5 mi WNW 8.1 mph - 0.04 in Fog , Snow Snow
4:27 AM 30.9 °F 25.2 °F 30.0 °F 96% 29.81 in 1.5 mi Variable 5.8 mph - 0.07 in   Overcast
4:34 AM 30.9 °F 23.5 °F 28.9 °F 92% 29.81 in 3.0 mi West 8.1 mph - 0.07 in   Overcast
4:56 AM 30.9 °F 24.3 °F 28.9 °F 92% 29.85 in 8.0 mi Variable 6.9 mph - 0.07 in Snow Light Snow
5:56 AM 30.0 °F 23.2 °F 28.0 °F 92% 29.90 in 10.0 mi Variable 6.9 mph 25.3 mph 0.00 in   Overcast
6:16 AM 30.0 °F 24.1 °F 27.0 °F 88% 29.89 in 10.0 mi Variable 5.8 mph 23.0 mph N/A   Overcast
6:24 AM 28.9 °F 21.1 °F 27.0 °F 92% 29.89 in 1.8 mi West 8.1 mph 23.0 mph 0.00 in Snow Light Snow
6:34 AM 28.9 °F 19.2 °F 27.0 °F 92% 29.90 in 0.5 mi West 11.5 mph 20.7 mph 0.01 in Fog , Snow Snow
6:56 AM 28.9 °F 21.9 °F 26.1 °F 89% 29.94 in 0.8 mi Variable 6.9 mph 23.0 mph 0.03 in Snow Light Snow
7:07 AM 28.9 °F 22.8 °F 26.1 °F 89% 29.92 in 2.0 mi Variable 5.8 mph 21.9 mph 0.01 in Snow Light Snow
7:15 AM 28.9 °F 21.9 °F 26.1 °F 89% 29.93 in 6.0 mi Variable 6.9 mph - 0.01 in Snow Light Snow
7:56 AM 28.0 °F 20.0 °F 25.0 °F 88% 30.01 in 10.0 mi West 8.1 mph 23.0 mph 0.01 in   Overcast
8:56 AM 28.9 °F 21.9 °F 25.0 °F 85% 30.06 in 10.0 mi Variable 6.9 mph 19.6 mph 0.00 in   Overcast
9:38 AM 28.9 °F 20.4 °F 25.0 °F 85% 30.02 in 10.0 mi West 9.2 mph - N/A   Overcast
9:56 AM 28.9 °F 23.9 °F 25.0 °F 85% 30.08 in 10.0 mi Variable 4.6 mph - N/A   Overcast
10:43 AM 30.0 °F - 27.0 °F 88% 30.03 in 2.0 mi North - - 0.00 in Snow Light Snow
10:52 AM 30.2 °F 22.6 °F 26.6 °F 86% 30.03 in - WNW 8.1 mph - 0.00 in Snow Light Snow
10:56 AM 30.9 °F 24.3 °F 27.0 °F 85% 30.08 in - Variable 6.9 mph - 0.00 in Snow Light Snow
11:56 AM 33.1 °F 30.0 °F 27.0 °F 78% 30.10 in - Variable 3.5 mph - 0.00 in Snow Light Snow
12:08 PM 33.1 °F 25.5 °F 26.1 °F 75% 30.06 in - WNW 9.2 mph 19.6 mph 0.00 in Snow Light Snow
12:56 PM 34.0 °F 28.0 °F 27.0 °F 75% 30.12 in 10.0 mi Variable 6.9 mph - 0.00 in   Overcast
1:56 PM 34.0 °F 28.8 °F 26.1 °F 73% 30.12 in - Variable 5.8 mph - N/A   Overcast
2:56 PM 35.1 °F 30.1 °F 26.1 °F 70% 30.12 in - Variable 5.8 mph - N/A   Overcast
3:56 PM 35.1 °F 32.2 °F 23.0 °F 61% 30.14 in - Variable 3.5 mph - N/A   Overcast
4:56 PM 34.0 °F 28.8 °F 23.0 °F 64% 30.16 in - Variable 5.8 mph - N/A   Overcast
5:56 PM 34.0 °F 28.8 °F 21.9 °F 61% 30.17 in - Variable 5.8 mph - N/A   Overcast
6:56 PM 33.1 °F 28.7 °F 24.1 °F 70% 30.19 in - Variable 4.6 mph - N/A   Overcast
7:56 PM 32.0 °F 28.7 °F 24.1 °F 73% 30.21 in - West 3.5 mph - N/A   Overcast
8:23 PM 32.0 °F 27.5 °F 24.1 °F 73% 30.14 in - West 4.6 mph - N/A   Overcast
8:56 PM 30.9 °F 26.2 °F 24.1 °F 76% 30.22 in - Variable 4.6 mph - N/A   Overcast
9:32 PM 30.9 °F 24.3 °F 25.0 °F 79% 30.14 in - Variable 6.9 mph - N/A   Overcast
9:56 PM 30.0 °F 25.2 °F 24.1 °F 79% 30.23 in - Variable 4.6 mph - N/A   Overcast
10:56 PM 30.0 °F - 25.0 °F 82% 30.23 in - Calm Calm - 0.00 in Snow Light Snow
11:56 PM 28.9 °F - 25.0 °F 85% 30.25 in - North - - 0.00 in   Overcast